Location: Saluda
(35.2377°N, 82.3468°W)
Time: 05:47:43
(UTC+00:00)

Vanguard 2 - Pass Details

Date: 05 October 2022
Orbit: 553 x 2933 km, 32.9° (Epoch: 26 November)

Event Time Altitude Azimuth Distance (km) Brightness Sun altitude
Rises 15:17:57 0° 202° (SSW) 3,656 11.3 41.0°
Reaches altitude 10° 15:20:45 10° 187° (S) 2,998 11.2 41.4°
Maximum altitude 15:26:38 24° 136° (SE) 2,678 12.1 42.1°
Drops below altitude 10° 15:35:01 10° 89° (E) 4,433 11.9 43.2°
Sets 15:40:17 0° 78° (ENE) 5,873 12.3 43.8°
